KUG840 KHST-KADW

Flight info

Callsign KUG840
Flight time N/A
Altitude 34000
Route FOLZZ3 ALYRA CANIT/N0496F350 AR23 OZENA AR18 ROWSY Y493 COACH AR24 JAZZI AR3 GARIC Q107 ZORDO Q111 ALXEA BEEVR VUDOO2
Aircraft A346/H-SDE2E3FGHIJ3J4J5M1RWXY/LB1D1

Departure

Time 2026-05-06 23:22
Airport Homestead Air Reserve Base (KHST)

Arrival

Time N/A
Airport Joint Base Andrews (KADW)
Time Latitude Longitude Altitude Speed Heading
2026-05-06 23:05 25.49401 -80.38460 27 ft 0 kts 319°
2026-05-06 23:13 25.49400 -80.38459 27 ft 0 kts 319°
2026-05-06 23:14 25.49383 -80.38443 27 ft 0 kts 319°
2026-05-06 23:14 25.49363 -80.38424 26 ft 0 kts 319°
2026-05-06 23:14 25.49343 -80.38404 25 ft 0 kts 319°
2026-05-06 23:14 25.49323 -80.38387 24 ft 0 kts 328°
2026-05-06 23:15 25.49306 -80.38383 25 ft 0 kts
2026-05-06 23:15 25.49290 -80.38393 25 ft 0 kts 47°
2026-05-06 23:15 25.49286 -80.38399 24 ft 0 kts 53°
2026-05-06 23:17 25.49286 -80.38398 24 ft 2 kts 53°
2026-05-06 23:17 25.49300 -80.38348 25 ft 13 kts 73°
2026-05-06 23:17 25.49383 -80.38228 28 ft 26 kts 49°
2026-05-06 23:18 25.49524 -80.38046 24 ft 36 kts 49°
2026-05-06 23:18 25.49706 -80.37813 25 ft 43 kts 49°
2026-05-06 23:18 25.49910 -80.37551 30 ft 44 kts 49°
2026-05-06 23:18 25.50062 -80.37315 28 ft 30 kts 92°
2026-05-06 23:19 25.49939 -80.37159 28 ft 7 kts 140°
2026-05-06 23:19 25.49939 -80.37158 28 ft 0 kts 140°
2026-05-06 23:20 25.49938 -80.37158 28 ft 0 kts 140°
2026-05-06 23:20 25.49909 -80.37131 30 ft 13 kts 140°
2026-05-06 23:20 25.49824 -80.37132 30 ft 16 kts 217°
2026-05-06 23:20 25.49782 -80.37178 30 ft 0 kts 228°
2026-05-06 23:21 25.49711 -80.37267 30 ft 45 kts 229°
2026-05-06 23:21 25.49352 -80.37723 30 ft 109 kts 229°
2026-05-06 23:21 25.48731 -80.38514 30 ft 161 kts 229°
2026-05-06 23:22 25.47921 -80.39551 258 ft 185 kts 228°
2026-05-06 23:22 25.47133 -80.40714 745 ft 195 kts 248°
2026-05-06 23:22 25.46941 -80.42212 1328 ft 203 kts 278°
2026-05-06 23:22 25.47294 -80.43724 1921 ft 205 kts 276°
2026-05-06 23:23 25.47165 -80.45319 2288 ft 216 kts 247°
2026-05-06 23:23 25.46730 -80.46962 2630 ft 232 kts 270°
2026-05-06 23:23 25.47174 -80.48704 2963 ft 244 kts 305°
2026-05-06 23:23 25.48478 -80.49937 3296 ft 256 kts 341°
2026-05-06 23:24 25.50267 -80.50076 3658 ft 267 kts 18°
2026-05-06 23:24 25.51822 -80.48999 4303 ft 268 kts 47°
2026-05-06 23:24 25.52967 -80.47369 5081 ft 268 kts 52°
2026-05-06 23:24 25.54041 -80.45677 5787 ft 271 kts 53°
2026-05-06 23:25 25.55158 -80.43947 6573 ft 280 kts 52°
2026-05-06 23:25 25.56293 -80.42237 7744 ft 277 kts 52°
2026-05-06 23:25 25.57463 -80.40514 8943 ft 277 kts 52°
2026-05-06 23:25 25.58634 -80.38805 9996 ft 280 kts 52°
2026-05-06 23:26 25.59818 -80.37087 10801 ft 289 kts 51°
2026-05-06 23:26 25.61079 -80.35266 11377 ft 306 kts 51°
2026-05-06 23:26 25.62421 -80.33335 11894 ft 324 kts 51°
2026-05-06 23:26 25.63836 -80.31301 12393 ft 343 kts 51°
2026-05-06 23:27 25.65333 -80.29152 12835 ft 361 kts 51°
2026-05-06 23:27 25.66907 -80.26894 13302 ft 377 kts 51°
2026-05-06 23:27 25.68522 -80.24575 14047 ft 382 kts 51°
2026-05-06 23:27 25.70154 -80.22228 14799 ft 385 kts 51°
2026-05-06 23:28 25.71796 -80.19868 15402 ft 392 kts 50°
2026-05-06 23:28 25.73463 -80.17472 15960 ft 399 kts 50°
2026-05-06 23:28 25.75174 -80.15010 16560 ft 405 kts 50°
2026-05-06 23:28 25.76903 -80.12522 17180 ft 410 kts 50°
2026-05-06 23:29 25.78659 -80.09993 17762 ft 416 kts 50°
2026-05-06 23:29 25.80439 -80.07429 18335 ft 422 kts 50°
2026-05-06 23:29 25.82245 -80.04826 18824 ft 427 kts 50°
2026-05-06 23:29 25.84069 -80.02194 19356 ft 431 kts 50°
2026-05-06 23:30 25.85905 -79.99541 19917 ft 435 kts 49°
2026-05-06 23:30 25.87769 -79.96847 20479 ft 438 kts 49°
2026-05-06 23:30 25.89636 -79.94150 21032 ft 442 kts 49°
2026-05-06 23:30 25.91519 -79.91428 21581 ft 446 kts 49°
2026-05-06 23:31 25.93419 -79.88678 22106 ft 451 kts 48°
2026-05-06 23:31 25.95337 -79.85903 22624 ft 455 kts 48°
2026-05-06 23:31 25.97275 -79.83098 23168 ft 459 kts 48°
2026-05-06 23:31 25.99227 -79.80271 23688 ft 462 kts 48°
2026-05-06 23:32 26.01191 -79.77424 24146 ft 466 kts 48°
2026-05-06 23:32 26.03144 -79.74595 24617 ft 468 kts 48°
2026-05-06 23:32 26.05133 -79.71710 25091 ft 472 kts 48°
2026-05-06 23:32 26.07139 -79.68797 25513 ft 475 kts 48°
2026-05-06 23:33 26.09160 -79.65860 25966 ft 479 kts 48°
2026-05-06 23:33 26.11166 -79.62874 26410 ft 484 kts 50°
2026-05-06 23:33 26.13131 -79.59812 26852 ft 488 kts 50°
2026-05-06 23:33 26.15096 -79.56716 27284 ft 492 kts 51°
2026-05-06 23:34 26.17077 -79.53585 27746 ft 496 kts 51°
2026-05-06 23:34 26.19072 -79.50431 28168 ft 499 kts 51°
2026-05-06 23:34 26.21082 -79.47253 28559 ft 504 kts 50°
2026-05-06 23:34 26.23114 -79.44046 28952 ft 508 kts 51°
2026-05-06 23:35 26.25187 -79.40854 29375 ft 510 kts 48°
2026-05-06 23:35 26.27459 -79.37834 29941 ft 507 kts 43°
2026-05-06 23:35 26.29927 -79.35049 30557 ft 501 kts 38°
2026-05-06 23:35 26.32554 -79.32527 31124 ft 495 kts 33°
2026-05-06 23:36 26.35323 -79.30278 31682 ft 490 kts 29°
2026-05-06 23:36 26.38173 -79.28209 32212 ft 488 kts 27°
2026-05-06 23:36 26.41033 -79.26184 32724 ft 486 kts 27°
2026-05-06 23:36 26.43885 -79.24172 33171 ft 483 kts 27°
2026-05-06 23:37 26.46730 -79.22161 33514 ft 484 kts 27°
2026-05-06 23:37 26.49577 -79.20139 33775 ft 486 kts 27°
2026-05-06 23:37 26.52431 -79.18111 34041 ft 488 kts 27°
2026-05-06 23:37 26.55294 -79.16071 34306 ft 489 kts 27°
2026-05-06 23:38 26.58165 -79.14022 34586 ft 489 kts 27°
2026-05-06 23:38 26.61038 -79.11969 34866 ft 490 kts 27°
2026-05-06 23:38 26.63908 -79.09915 35067 ft 491 kts 27°
2026-05-06 23:39 26.69671 -79.05789 35092 ft 492 kts 27°
2026-05-06 23:39 26.75422 -79.01661 35088 ft 490 kts 26°
2026-05-06 23:40 26.81156 -78.97542 35094 ft 489 kts 26°
2026-05-06 23:40 26.86874 -78.93434 35091 ft 489 kts 26°
2026-05-06 23:41 26.92581 -78.89326 35091 ft 489 kts 27°
2026-05-06 23:41 26.98323 -78.85188 35092 ft 490 kts 27°
2026-05-06 23:42 27.04054 -78.81052 35104 ft 490 kts 26°
2026-05-06 23:42 27.09790 -78.76908 35096 ft 490 kts 26°
2026-05-06 23:43 27.15537 -78.72751 35094 ft 491 kts 26°
2026-05-06 23:43 27.21320 -78.68701 35097 ft 487 kts 23°
2026-05-06 23:44 27.27386 -78.65451 35094 ft 478 kts 15°
2026-05-06 23:44 27.33622 -78.63169 35095 ft 472 kts
2026-05-06 23:45 27.40043 -78.61806 35097 ft 466 kts
2026-05-06 23:45 27.46497 -78.60953 35099 ft 466 kts
2026-05-06 23:46 27.52942 -78.60130 35098 ft 466 kts
2026-05-06 23:46 27.59400 -78.59298 35105 ft 466 kts
2026-05-06 23:47 27.65805 -78.58466 35101 ft 466 kts
2026-05-06 23:47 27.72258 -78.57627 35097 ft 466 kts
2026-05-06 23:48 27.78707 -78.56788 35099 ft 466 kts
2026-05-06 23:48 27.85157 -78.55946 35098 ft 466 kts
2026-05-06 23:49 27.91604 -78.55103 35107 ft 466 kts
2026-05-06 23:49 27.98044 -78.54260 35099 ft 465 kts
2026-05-06 23:50 28.04471 -78.53419 35093 ft 465 kts
2026-05-06 23:50 28.14073 -78.52160 35096 ft 465 kts
2026-05-06 23:51 28.20503 -78.51313 35106 ft 465 kts
2026-05-06 23:51 28.26933 -78.50466 35100 ft 464 kts
2026-05-06 23:52 28.33350 -78.49624 35106 ft 464 kts
2026-05-06 23:52 28.39767 -78.48779 35103 ft 464 kts
2026-05-06 23:53 28.46205 -78.47929 35102 ft 465 kts
2026-05-06 23:53 28.52628 -78.47076 35108 ft 465 kts
2026-05-06 23:54 28.59009 -78.46234 35102 ft 465 kts
2026-05-06 23:54 28.65436 -78.45384 35099 ft 465 kts
2026-05-06 23:55 28.71860 -78.44532 35102 ft 465 kts
2026-05-06 23:55 28.78301 -78.43674 35109 ft 465 kts
2026-05-06 23:56 28.84724 -78.42820 35107 ft 465 kts
2026-05-06 23:56 28.91119 -78.41971 35106 ft 465 kts
2026-05-06 23:57 28.97548 -78.41114 35105 ft 465 kts
2026-05-06 23:57 29.03968 -78.40258 35133 ft 465 kts 360°
2026-05-06 23:58 29.10391 -78.39395 35111 ft 464 kts 359°
2026-05-06 23:58 29.16817 -78.38539 35107 ft 464 kts 360°
2026-05-06 23:59 29.23196 -78.37686 35106 ft 464 kts 360°
2026-05-06 23:59 29.29629 -78.36824 35106 ft 464 kts 360°
2026-05-07 00:00 29.36050 -78.35959 35113 ft 464 kts 359°
2026-05-07 00:00 29.41334 -78.35772 35110 ft 451 kts 349°
2026-05-07 00:01 29.48438 -78.37347 35107 ft 444 kts 340°
2026-05-07 00:01 29.54417 -78.39119 35106 ft 444 kts 340°
2026-05-07 00:02 29.60409 -78.40881 35121 ft 445 kts 341°
2026-05-07 00:02 29.65550 -78.41636 35115 ft 453 kts 351°
2026-05-07 00:03 29.71910 -78.41294 35110 ft 459 kts 357°